DW9722 Weather Reports


Display with metric or nautical units.
time (UTC)temp
F
wind
direction
speed
MPH
gust
MPH
rain 1hr
in
rain 24hr
in
rain mn
in
humidity
%
barometer
mb
20260505124541 59 169 0.0 0.0 0.00 0.17 0.02 1 1003.9
20260505123039 58 169 0.0 0.0 0.00 0.17 0.02 1 1004.0
20260505121527 58 208 0.0 0.0 0.01 0.17 0.02 1 1004.3
20260505120023 58 208 0.0 0.0 0.01 0.17 0.02 1 1004.2
20260505114518 59 220 0.0 0.0 0.01 0.17 0.02 1 1004.2
20260505113013 59 267 0.0 0.0 0.01 0.17 0.02 1 1004.2
20260505111512 60 223 0.0 0.0 0.00 0.16 0.02 1 1004.3
20260505101520 61 243 0.0 0.0 0.00 0.16 0.02 1 1004.3
20260505091612 58 210 0.0 0.0 0.00 0.16 0.02 1 1004.4
20260505090039 58 235 0.0 0.0 0.00 0.16 0.02 1 1004.2
20260505084530 58 206 0.0 0.0 0.00 0.16 0.02 1 1004.1
20260505083025 58 168 0.0 0.0 0.00 0.16 0.02 1 1004.1
20260505081531 57 173 0.0 0.0 0.00 0.17 0.02 1 1004.2
20260505080019 57 136 0.0 0.0 0.00 0.17 0.02 1 1004.1
20260505074510 57 136 0.0 0.0 0.00 0.17 0.02 1 1004.2
20260505073009 57 136 0.0 0.0 0.00 0.17 0.02 1 1004.2
20260505071504 56 164 0.0 0.0 0.00 0.22 0.02 1 1004.2
20260505070111 56 205 0.0 0.0 0.00 0.22 0.02 1 1004.2
20260505070021 56 155 0.0 0.0 0.00 0.22 0.02 1 1004.2
20260505064555 55 214 0.0 0.0 0.00 0.22 0.02 1 1004.2
20260505063045 54 178 0.0 0.0 0.00 0.22 0.02 1 1004.2
20260505061540 54 104 0.0 0.0 0.00 0.31 0.02 1 1004.3
20260505060036 53 158 0.0 0.0 0.00 0.31 0.02 1 1004.3
20260505054517 53 119 0.0 0.0 0.00 0.31 0.02 1 1004.2
20260505053012 53 184 0.0 0.0 0.00 0.31 0.02 1 1004.2
20260505051541 53 84 0.0 0.0 0.00 0.42 0.02 1 1004.1
20260505041519 53 87 0.0 0.0 0.02 0.52 0.02 1 1004.6
20260505040023 53 70 0.0 0.0 0.02 0.52 0.02 1 1004.7
20260505034507 53 88 0.0 0.0 0.03 0.52 0.02 1 1004.9
20260505033002 53 88 0.0 0.0 0.02 0.51 0.01 1 1004.9
20260505031559 53 88 0.0 0.0 0.02 0.50 0.50 1 1004.9
20260505030052 53 88 0.0 0.0 0.03 0.50 0.50 1 1005.0
20260505024548 53 88 0.0 0.0 0.02 0.49 0.49 1 1005.1
20260505023019 53 88 0.0 0.0 0.02 0.49 0.49 1 1005.4
20260505021513 53 88 0.0 0.0 0.02 0.48 0.48 1 1005.2
20260505020008 53 90 0.0 0.0 0.02 0.47 0.47 1 1005.4
20260505014506 53 90 0.0 0.0 0.02 0.47 0.47 1 1005.5
20260505013057 53 90 0.0 0.0 0.02 0.46 0.46 1 1005.6
20260505011555 53 90 0.0 0.0 0.05 0.46 0.46 1 1005.7
20260505010112 53 90 0.0 0.0 0.05 0.46 0.46 1 1005.9
20260505004543 53 90 0.0 0.0 0.04 0.45 0.45 1 1006.1
20260505003036 53 90 0.0 0.0 0.03 0.43 0.43 1 1006.2
20260505001532 54 90 0.0 0.0 0.02 0.42 0.42 1 1006.4
20260505000029 54 109 0.0 0.0 0.03 0.41 0.41 1 1006.5
20260504234523 54 109 0.0 0.0 0.04 0.41 0.41 1 1006.6
20260504233017 55 113 0.0 0.0 0.03 0.39 0.39 1 1006.7
20260504231516 55 107 0.0 0.0 0.02 0.39 0.39 1 1006.7
20260504230016 56 158 0.0 0.0 0.02 0.38 0.38 1 1006.7
20260504224515 56 185 0.0 0.0 0.01 0.37 0.37 1 1006.7
20260504223011 56 157 0.0 0.0 0.00 0.36 0.36 1 1006.6
20260504221524 54 169 0.0 0.0 0.00 0.36 0.36 1 1006.8
20260504220005 54 215 0.0 0.0 0.00 0.36 0.36 1 1006.9
20260504214506 55 215 0.0 0.0 0.00 0.36 0.36 1 1006.9
20260504213029 55 215 0.0 0.0 0.00 0.36 0.36 1 1006.8
20260504211556 55 215 0.0 0.0 0.00 0.36 0.36 1 1007.0
20260504210016 56 215 0.0 0.0 0.00 0.36 0.36 1 1007.1
20260504204513 56 215 0.0 0.0 0.00 0.36 0.36 1 1007.2
20260504203011 56 215 0.0 0.0 0.00 0.36 0.36 1 1007.2
20260504201503 55 26 0.0 0.0 0.00 0.36 0.36 1 1007.2
20260504200100 56 26 0.0 0.0 0.00 0.36 0.36 1 1007.1
20260504194551 56 143 0.0 0.0 0.00 0.36 0.36 1 1006.9
20260504193047 56 92 0.0 0.0 0.00 0.36 0.36 1 1006.9
20260504191553 56 138 0.0 0.0 0.00 0.36 0.36 1 1006.9
20260504190012 57 94 0.0 0.0 0.00 0.36 0.36 1 1006.8
20260504184511 57 360 0.0 0.0 0.00 0.36 0.36 1 1006.9
20260504183049 57 78 0.0 0.0 0.00 0.36 0.36 1 1007.0
20260504181545 58 88 0.0 0.0 0.00 0.36 0.36 1 1007.2
20260504180030 58 117 0.0 0.0 0.00 0.36 0.36 1 1007.1
20260504180012 58 92 0.0 0.0 0.00 0.36 0.36 1 1007.1
20260504174559 59 143 0.0 0.0 0.00 0.36 0.36 1 1007.2
20260504173018 59 117 0.0 0.0 0.00 0.36 0.36 1 1007.3
20260504171514 59 141 0.0 0.0 0.00 0.36 0.36 1 1007.3
20260504150138 60 159 0.0 0.0 0.00 0.36 0.36 1 1007.9